Preview of NWS' New Version of Forecast
This preview is not operational and should not be used for support decisions.

Regional Weather Roundup (RWR)

Issued by National Weather Service (NWS)

                            
000
ASUS44 KJAN 171510
RWRMS 

MISSISSIPPI HOURLY WEATHER ROUNDUP
NATIONAL WEATHER SERVICE JACKSON MS
1000 AM CDT WED APR 17 2019

NOTE: "FAIR: INDICATES FEW OR NO CLOUDS BELOW 12,000 FEET WITH NO
SIGNIFICANT WEATHER AND/OR OBSTRUCTIONS TO VISIBILITY.

MSZ001>002-007>008-010>013-018>021-025>028-034>036-171600-
NORTHWEST MISSISSIPPI
  
CITY           SKY/WX    TMP DP  RH WIND       PRES   REMARKS
BATESVILLE     FAIR      66  59  77 SE9       30.04F                  
CLARKSDALE     MOSUNNY   66  64  94 S10       30.04S                  
CLEVELAND      CLOUDY    66  60  81 S12       30.04R                  
GREENWOOD      FAIR      68  59  73 S10       30.06F                  
GREENVILLE     PTSUNNY   66  60  81 S12       30.03R                  
OLIVE BRANCH   CLOUDY    63  63 100 S8G15     30.03F                  
OXFORD         FAIR      64  57  77 VRB6G12   30.08F                  
TUNICA           N/A     64  59  82 S13       30.04R                  
WINONA         FAIR      64  58  82 CALM      30.08S                  
$$

MSZ003>006-009-014>017-022>024-029>033-037>039-171600-
NORTHEAST MISSISSIPPI
  
CITY           SKY/WX    TMP DP  RH WIND       PRES   REMARKS
ABERDEEN       FAIR      66  64  94 S3        30.12S                  
COLUMBUS AFB   FAIR      66  58  75 SE6       30.10S                  
CORINTH        FAIR      66  55  68 S7        30.08R                  
GOLDN TRIANGLE FAIR      66  59  78 S6        30.11S                  
STARKVILLE     FAIR      68  59  73 SW3       30.11S                  
TUPELO         FAIR      65  56  72 S8        30.09S                  
$$

MSZ040-058-171600-
CENTRAL MISSISSIPPI
  
CITY           SKY/WX    TMP DP  RH WIND       PRES   REMARKS
JACKSON INTL   PTSUNNY   68  60  75 S7        30.07R                  
JACKSON HAWKNS FAIR      67  61  81 S6        30.07R                  
MADISON        FAIR      64  63  94 S6        30.07R                  
MERIDIAN KEY   FAIR      67  60  78 S5        30.10S                  
MERIDIAN NAS   CLOUDY    66  59  78 SE5       30.11S                  
RAYMOND        FAIR      68  64  88 S5        30.07R                  
VICKSBURG VKS  SUNNY     68  63  83 S7        30.05S                  
$$

MSZ059>079-171600-
SOUTH MISSISSIPPI
  
CITY           SKY/WX    TMP DP  RH WIND       PRES   REMARKS
HATTIESBURG    FAIR      66  60  81 CALM      30.10S                  
LAUREL         SUNNY     67  61  81 SE8       30.09S                  
MCCOMB         FAIR      68  61  78 SE9       30.05S                  
NATCHEZ        PTSUNNY   68  62  81 S9        30.04R                  
PINE BELT      FAIR      66  63  88 SE8       30.09F                  
$$

MSZ080>082-171600-
COASTAL MISSISSIPPI
  
CITY           SKY/WX    TMP DP  RH WIND       PRES   REMARKS
BILOXI         PTSUNNY   73  63  68 S8        30.08S                  
PASCAGOULA     FAIR      75  61  61 VRB5      30.09R                  
GULFPORT       FAIR      73  62  68 S7        30.08R                  
$$

LAZ007>009-015>016-023>026-171600-
NORTHEAST LOUISIANA
  
CITY           SKY/WX    TMP DP  RH WIND       PRES   REMARKS
BASTROP        CLOUDY    65  64  97 SE3       30.04S                  
TALLULAH/VBURG FAIR      67  61  81 S13       30.04F                  
VIDALIA        FAIR      68  63  82 S8        30.03S                  
$$